UAE834 OBBI-OMDB

Flight info

Callsign UAE834
Flight time 0h 52m
Altitude 25000
Route BHR N697 SODAK P559 VUTEB
Aircraft B77W/H-SDE1E2E3FGHIJ2J3J4J5M1RWXY/LB1D1

Departure

Time 2026-05-04 13:58
Airport Bahrain International Airport (OBBI)

Arrival

Time 2026-05-04 14:51
Airport Dubai International Airport (OMDB)
Time Latitude Longitude Altitude Speed Heading
2026-05-04 13:26 26.26768 50.63151 19 ft 0 kts 210°
2026-05-04 13:44 26.26774 50.63155 19 ft 4 kts 211°
2026-05-04 13:44 26.26797 50.63172 21 ft 4 kts 212°
2026-05-04 13:44 26.26820 50.63186 19 ft 4 kts 197°
2026-05-04 13:44 26.26846 50.63189 19 ft 4 kts 166°
2026-05-04 13:45 26.26868 50.63176 22 ft 3 kts 126°
2026-05-04 13:45 26.26870 50.63173 22 ft 1 kts 123°
2026-05-04 13:49 26.26869 50.63174 22 ft 0 kts 123°
2026-05-04 13:49 26.26868 50.63176 22 ft 1 kts 123°
2026-05-04 13:49 26.26865 50.63182 22 ft 1 kts 124°
2026-05-04 13:49 26.26860 50.63189 23 ft 1 kts 124°
2026-05-04 13:50 26.26854 50.63199 21 ft 2 kts 124°
2026-05-04 13:50 26.26847 50.63210 21 ft 2 kts 124°
2026-05-04 13:50 26.26838 50.63224 20 ft 2 kts 124°
2026-05-04 13:50 26.26828 50.63241 19 ft 3 kts 124°
2026-05-04 13:51 26.26817 50.63260 19 ft 3 kts 124°
2026-05-04 13:51 26.26804 50.63283 19 ft 4 kts 118°
2026-05-04 13:51 26.26791 50.63312 19 ft 5 kts 109°
2026-05-04 13:51 26.26798 50.63349 18 ft 6 kts 60°
2026-05-04 13:52 26.26876 50.63422 19 ft 9 kts 33°
2026-05-04 13:52 26.26929 50.63460 17 ft 9 kts 32°
2026-05-04 13:52 26.26963 50.63517 17 ft 10 kts 72°
2026-05-04 13:53 26.26948 50.63616 17 ft 19 kts 120°
2026-05-04 13:53 26.26841 50.63787 19 ft 34 kts 125°
2026-05-04 13:53 26.26682 50.64053 19 ft 48 kts 123°
2026-05-04 13:54 26.26230 50.64820 19 ft 55 kts 124°
2026-05-04 13:54 26.26090 50.64987 20 ft 10 kts 185°
2026-05-04 13:54 26.26040 50.64947 19 ft 1 kts 225°
2026-05-04 13:55 26.26031 50.64944 22 ft 2 kts 196°
2026-05-04 13:55 26.25930 50.65069 19 ft 10 kts 127°
2026-05-04 13:55 26.25862 50.65045 18 ft 8 kts 255°
2026-05-04 13:56 26.25926 50.64972 18 ft 22 kts 330°
2026-05-04 13:56 26.26047 50.64971 20 ft 16 kts 26°
2026-05-04 13:56 26.26059 50.64977 22 ft 0 kts 26°
2026-05-04 13:57 26.26059 50.64978 22 ft 2 kts 26°
2026-05-04 13:57 26.26147 50.64982 22 ft 20 kts 327°
2026-05-04 13:58 26.27310 50.63023 236 ft 185 kts 306°
2026-05-04 13:58 26.29105 50.61117 1436 ft 185 kts 346°
2026-05-04 13:58 26.30376 50.60768 1898 ft 196 kts 347°
2026-05-04 13:59 26.31775 50.60388 2096 ft 216 kts 348°
2026-05-04 13:59 26.33300 50.59969 2272 ft 237 kts 348°
2026-05-04 13:59 26.36375 50.60961 2746 ft 257 kts 52°
2026-05-04 14:00 26.37319 50.62693 3088 ft 261 kts 55°
2026-05-04 14:00 26.39368 50.66050 4016 ft 265 kts 50°
2026-05-04 14:00 26.40463 50.67708 4517 ft 266 kts 49°
2026-05-04 14:01 26.41587 50.69362 4944 ft 270 kts 48°
2026-05-04 14:01 26.42743 50.71030 5363 ft 273 kts 47°
2026-05-04 14:01 26.45110 50.74393 6259 ft 279 kts 46°
2026-05-04 14:02 26.46322 50.76099 6669 ft 281 kts 47°
2026-05-04 14:02 26.47545 50.77817 7063 ft 284 kts 46°
2026-05-04 14:02 26.48784 50.79555 7484 ft 288 kts 46°
2026-05-04 14:02 26.50042 50.81317 8016 ft 295 kts 46°
2026-05-04 14:03 26.51329 50.83122 8836 ft 297 kts 46°
2026-05-04 14:03 26.52622 50.84934 9626 ft 301 kts 46°
2026-05-04 14:03 26.53942 50.86782 10301 ft 308 kts 47°
2026-05-04 14:03 26.55325 50.88715 10615 ft 332 kts 47°
2026-05-04 14:04 26.58699 50.92781 11026 ft 379 kts 36°
2026-05-04 14:04 26.60809 50.94609 11613 ft 390 kts 33°
2026-05-04 14:04 26.62998 50.96456 12380 ft 397 kts 34°
2026-05-04 14:05 26.67439 51.00271 14055 ft 408 kts 35°
2026-05-04 14:05 26.69701 51.02238 14812 ft 414 kts 35°
2026-05-04 14:05 26.71976 51.04239 15564 ft 419 kts 36°
2026-05-04 14:06 26.74114 51.06461 16096 ft 428 kts 50°
2026-05-04 14:06 26.75524 51.09444 16714 ft 440 kts 72°
2026-05-04 14:06 26.75985 51.12832 17455 ft 446 kts 90°
2026-05-04 14:06 26.75521 51.16259 18178 ft 447 kts 109°
2026-05-04 14:07 26.74465 51.19542 18659 ft 452 kts 112°
2026-05-04 14:07 26.73349 51.22819 18765 ft 451 kts 112°
2026-05-04 14:07 26.72234 51.26103 18763 ft 452 kts 112°
2026-05-04 14:07 26.71136 51.29403 18766 ft 453 kts 111°
2026-05-04 14:08 26.70059 51.32709 18764 ft 453 kts 111°
2026-05-04 14:08 26.68992 51.36021 18761 ft 454 kts 111°
2026-05-04 14:08 26.67921 51.39360 19201 ft 459 kts 111°
2026-05-04 14:08 26.66836 51.42733 19909 ft 461 kts 111°
2026-05-04 14:09 26.64656 51.49505 21221 ft 468 kts 111°
2026-05-04 14:09 26.63551 51.52944 21801 ft 473 kts 111°
2026-05-04 14:10 26.61301 51.59944 23039 ft 481 kts 111°
2026-05-04 14:10 26.60170 51.63459 23592 ft 484 kts 111°
2026-05-04 14:10 26.59019 51.67030 24032 ft 489 kts 111°
2026-05-04 14:10 26.57857 51.70629 24455 ft 495 kts 111°
2026-05-04 14:11 26.56681 51.74247 24777 ft 500 kts 112°
2026-05-04 14:11 26.54313 51.81563 24746 ft 498 kts 111°
2026-05-04 14:11 26.53140 51.85212 24747 ft 497 kts 111°
2026-05-04 14:12 26.51969 51.88833 24747 ft 497 kts 112°
2026-05-04 14:12 26.50773 51.92450 24749 ft 497 kts 112°
2026-05-04 14:12 26.48351 51.99679 24748 ft 497 kts 112°
2026-05-04 14:13 26.47254 52.02955 24750 ft 497 kts 112°
2026-05-04 14:13 26.46045 52.06574 24749 ft 497 kts 112°
2026-05-04 14:13 26.44841 52.10183 24748 ft 497 kts 112°
2026-05-04 14:13 26.43632 52.13801 24746 ft 497 kts 112°
2026-05-04 14:14 26.42813 52.16248 24746 ft 497 kts 112°
2026-05-04 14:14 26.40386 52.23475 24745 ft 497 kts 112°
2026-05-04 14:14 26.39174 52.27083 24746 ft 497 kts 112°
2026-05-04 14:15 26.36743 52.34311 24735 ft 497 kts 112°
2026-05-04 14:15 26.34269 52.41502 24737 ft 495 kts 114°
2026-05-04 14:16 26.31548 52.48525 24738 ft 494 kts 115°
2026-05-04 14:16 26.30167 52.52034 24738 ft 493 kts 115°
2026-05-04 14:17 26.27453 52.59048 24737 ft 493 kts 115°
2026-05-04 14:17 26.26106 52.62568 24740 ft 493 kts 115°
2026-05-04 14:17 26.23418 52.69574 24737 ft 493 kts 115°
2026-05-04 14:18 26.22070 52.73087 24734 ft 493 kts 115°
2026-05-04 14:18 26.19381 52.80097 24735 ft 493 kts 115°
2026-05-04 14:19 26.16685 52.87120 24735 ft 493 kts 115°
2026-05-04 14:19 26.15333 52.90635 24740 ft 493 kts 115°
2026-05-04 14:19 26.13983 52.94143 24740 ft 494 kts 115°
2026-05-04 14:19 26.12633 52.97649 24737 ft 494 kts 115°
2026-05-04 14:20 26.11413 53.00812 24737 ft 494 kts 115°
2026-05-04 14:20 26.10056 53.04333 24729 ft 494 kts 114°
2026-05-04 14:20 26.08735 53.07853 24734 ft 494 kts 114°
2026-05-04 14:21 26.06156 53.14926 24739 ft 494 kts 113°
2026-05-04 14:21 26.04870 53.18464 24737 ft 494 kts 114°
2026-05-04 14:21 26.03575 53.22010 24736 ft 493 kts 114°
2026-05-04 14:21 26.02281 53.25539 24734 ft 493 kts 114°
2026-05-04 14:22 26.00983 53.29065 24733 ft 493 kts 114°
2026-05-04 14:22 25.99679 53.32603 24733 ft 493 kts 114°
2026-05-04 14:22 25.98379 53.36126 24733 ft 493 kts 114°
2026-05-04 14:22 25.97078 53.39649 24734 ft 493 kts 114°
2026-05-04 14:23 25.94470 53.46707 24734 ft 493 kts 114°
2026-05-04 14:23 25.93169 53.50226 24736 ft 493 kts 113°
2026-05-04 14:23 25.91915 53.53775 24736 ft 494 kts 112°
2026-05-04 14:24 25.90700 53.57343 24735 ft 494 kts 112°
2026-05-04 14:24 25.89496 53.60911 24734 ft 494 kts 112°
2026-05-04 14:24 25.88284 53.64476 24735 ft 494 kts 112°
2026-05-04 14:24 25.87059 53.68047 24734 ft 494 kts 112°
2026-05-04 14:25 25.85834 53.71596 24734 ft 494 kts 112°
2026-05-04 14:25 25.83360 53.78702 24732 ft 494 kts 112°
2026-05-04 14:25 25.82098 53.82312 24732 ft 494 kts 112°
2026-05-04 14:26 25.80876 53.85809 24734 ft 494 kts 112°
2026-05-04 14:26 25.79633 53.89367 24735 ft 494 kts 112°
2026-05-04 14:26 25.78380 53.92954 24734 ft 494 kts 112°
2026-05-04 14:26 25.77163 53.96436 24694 ft 488 kts 112°
2026-05-04 14:27 25.75944 53.99917 24339 ft 482 kts 112°
2026-05-04 14:27 25.74885 54.03003 23895 ft 477 kts 111°
2026-05-04 14:27 25.73796 54.06461 23383 ft 473 kts 109°
2026-05-04 14:27 25.72757 54.09917 22786 ft 469 kts 109°
2026-05-04 14:28 25.71742 54.13316 22180 ft 465 kts 109°
2026-05-04 14:28 25.70715 54.16716 21586 ft 461 kts 109°
2026-05-04 14:28 25.69692 54.20062 21009 ft 458 kts 109°
2026-05-04 14:28 25.68668 54.23378 20510 ft 453 kts 109°
2026-05-04 14:29 25.66639 54.29925 19425 ft 446 kts 109°
2026-05-04 14:29 25.64651 54.36348 18400 ft 440 kts 109°
2026-05-04 14:30 25.63672 54.39547 17740 ft 439 kts 108°
2026-05-04 14:30 25.62687 54.42771 16915 ft 442 kts 108°
2026-05-04 14:30 25.60731 54.49163 15767 ft 434 kts 108°
2026-05-04 14:31 25.59763 54.52314 15217 ft 429 kts 108°
2026-05-04 14:31 25.58328 54.58607 14138 ft 418 kts 94°
2026-05-04 14:32 25.58502 54.64869 13221 ft 402 kts 79°
2026-05-04 14:32 25.58916 54.67877 13034 ft 388 kts 79°
2026-05-04 14:32 25.59307 54.70778 12854 ft 375 kts 79°
2026-05-04 14:32 25.59676 54.73591 12694 ft 363 kts 79°
2026-05-04 14:33 25.60025 54.76306 12581 ft 349 kts 79°
2026-05-04 14:33 25.60359 54.78929 12305 ft 341 kts 79°
2026-05-04 14:33 25.60675 54.81446 11894 ft 319 kts 79°
2026-05-04 14:33 25.60970 54.83807 11501 ft 300 kts 79°
2026-05-04 14:34 25.61165 54.86042 11104 ft 287 kts 91°
2026-05-04 14:34 25.60658 54.88182 10724 ft 285 kts 111°
2026-05-04 14:34 25.59853 54.90177 10433 ft 291 kts 111°
2026-05-04 14:34 25.59019 54.92259 10129 ft 298 kts 111°
2026-05-04 14:35 25.58188 54.94341 10020 ft 291 kts 111°
2026-05-04 14:35 25.57377 54.96384 10029 ft 289 kts 111°
2026-05-04 14:35 25.56562 54.98448 10022 ft 289 kts 111°
2026-05-04 14:35 25.55834 55.00295 10018 ft 289 kts 111°
2026-05-04 14:36 25.55030 55.02335 10024 ft 289 kts 111°
2026-05-04 14:36 25.54181 55.04354 10005 ft 290 kts 116°
2026-05-04 14:36 25.53187 55.06301 10023 ft 290 kts 118°
2026-05-04 14:36 25.52148 55.08248 10015 ft 290 kts 118°
2026-05-04 14:37 25.51143 55.10135 9910 ft 288 kts 118°
2026-05-04 14:37 25.50135 55.12047 9691 ft 287 kts 118°
2026-05-04 14:37 25.49136 55.13959 9384 ft 286 kts 118°
2026-05-04 14:37 25.48149 55.15856 9027 ft 284 kts 118°
2026-05-04 14:38 25.47155 55.17767 8659 ft 282 kts 117°
2026-05-04 14:38 25.46179 55.19638 8280 ft 280 kts 119°
2026-05-04 14:38 25.45009 55.21361 8029 ft 280 kts 130°
2026-05-04 14:38 25.43678 55.22957 8029 ft 285 kts 131°
2026-05-04 14:39 25.42319 55.24554 8019 ft 284 kts 131°
2026-05-04 14:39 25.40980 55.26149 8009 ft 282 kts 131°
2026-05-04 14:39 25.39664 55.27742 8004 ft 279 kts 131°
2026-05-04 14:40 25.37087 55.30893 7991 ft 270 kts 130°
2026-05-04 14:40 25.35856 55.32402 7986 ft 259 kts 129°
2026-05-04 14:40 25.34798 55.33972 7822 ft 253 kts 120°
2026-05-04 14:40 25.33895 55.35624 7577 ft 252 kts 118°
2026-05-04 14:41 25.33024 55.37260 7331 ft 252 kts 118°
2026-05-04 14:41 25.32132 55.38919 7101 ft 250 kts 118°
2026-05-04 14:41 25.30320 55.42229 6455 ft 251 kts 119°
2026-05-04 14:42 25.28513 55.45482 5756 ft 249 kts 119°
2026-05-04 14:42 25.27606 55.47110 5397 ft 248 kts 119°
2026-05-04 14:42 25.26708 55.48723 5029 ft 247 kts 119°
2026-05-04 14:43 25.25809 55.50338 4671 ft 246 kts 119°
2026-05-04 14:43 25.24913 55.51948 4276 ft 247 kts 120°
2026-05-04 14:43 25.24006 55.53580 3817 ft 251 kts 121°
2026-05-04 14:43 25.23098 55.55214 3411 ft 251 kts 120°
2026-05-04 14:44 25.22180 55.56866 2994 ft 253 kts 121°
2026-05-04 14:44 25.21282 55.58479 2627 ft 252 kts 121°
2026-05-04 14:44 25.20367 55.60122 2249 ft 249 kts 122°
2026-05-04 14:44 25.19313 55.61527 2032 ft 229 kts 148°
2026-05-04 14:45 25.17940 55.62080 2003 ft 202 kts 181°
2026-05-04 14:45 25.16655 55.61635 2023 ft 197 kts 221°
2026-05-04 14:45 25.15907 55.60437 2020 ft 189 kts 259°
2026-05-04 14:45 25.15650 55.59041 2016 ft 186 kts 257°
2026-05-04 14:46 25.15298 55.57671 2034 ft 183 kts 256°
2026-05-04 14:46 25.14936 55.56360 2014 ft 178 kts 259°
2026-05-04 14:46 25.15047 55.55038 2020 ft 180 kts 296°
2026-05-04 14:46 25.15693 55.53816 2021 ft 186 kts 300°
2026-05-04 14:47 25.16329 55.52626 2032 ft 179 kts 301°
2026-05-04 14:47 25.16970 55.51457 2020 ft 177 kts 301°
2026-05-04 14:47 25.17590 55.50334 2005 ft 164 kts 301°
2026-05-04 14:47 25.18159 55.49302 2006 ft 157 kts 300°
2026-05-04 14:48 25.18731 55.48269 1779 ft 153 kts 301°
2026-05-04 14:48 25.19262 55.47311 1606 ft 142 kts 301°
2026-05-04 14:48 25.19770 55.46391 1428 ft 139 kts 301°
2026-05-04 14:48 25.20281 55.45466 1258 ft 144 kts 301°
2026-05-04 14:49 25.20803 55.44521 1049 ft 144 kts 299°
2026-05-04 14:49 25.21357 55.43587 888 ft 146 kts 300°
2026-05-04 14:49 25.21865 55.42631 790 ft 144 kts 295°
2026-05-04 14:49 25.22362 55.41653 578 ft 145 kts 299°
2026-05-04 14:50 25.22734 55.41023 469 ft 147 kts 300°
2026-05-04 14:50 25.23451 55.39755 229 ft 148 kts 298°
2026-05-04 14:50 25.23795 55.39120 115 ft 145 kts 298°
2026-05-04 14:50 25.24393 55.38032 27 ft 107 kts 302°
2026-05-04 14:51 25.24607 55.37666 19 ft 85 kts 301°
2026-05-04 14:51 25.24761 55.37333 18 ft 31 kts 289°
2026-05-04 14:51 25.24782 55.37187 19 ft 0 kts 274°
2026-05-04 14:52 25.24782 55.37185 19 ft 1 kts 274°
2026-05-04 14:52 25.24783 55.37174 19 ft 2 kts 273°
2026-05-04 14:53 25.24783 55.37152 19 ft 4 kts 269°
2026-05-04 14:53 25.24779 55.37116 18 ft 6 kts 262°
2026-05-04 14:53 25.24769 55.37068 18 ft 7 kts 252°
2026-05-04 14:53 25.24766 55.37015 24 ft 7 kts 285°
2026-05-04 14:54 25.24785 55.36964 27 ft 7 kts 295°
2026-05-04 14:54 25.24795 55.36912 31 ft 7 kts 266°
2026-05-04 14:54 25.24768 55.36859 31 ft 8 kts 233°
2026-05-04 14:54 25.24743 55.36796 32 ft 10 kts 251°
2026-05-04 14:55 25.24717 55.36716 31 ft 12 kts 250°
2026-05-04 14:55 25.24698 55.36661 31 ft 6 kts 248°
2026-05-04 14:55 25.24697 55.36656 31 ft 0 kts 248°